Meteo pe oră la Bolshoe Maleshevo

Astăzi, 8 Mai, Sâmbătă

Timp Temperatura Precipitaţii Vânt Presiune Umiditate
00:00 +6°C° 0 mm 2 m/s 743 mmHg 96%
01:00 +5°C° 0 mm 2 m/s 743 mmHg 96%
02:00 +4°C° 0 mm 3 m/s 743 mmHg 96%
03:00 +4°C° 0 mm 3 m/s 744 mmHg 95%
04:00 +4°C° 0 mm 4 m/s 744 mmHg 93%
05:00 +4°C° 0 mm 4 m/s 744 mmHg 92%
06:00 +4°C° 0 mm 4 m/s 744 mmHg 90%
07:00 +5°C° 0 mm 4 m/s 745 mmHg 87%
08:00 +5°C° 0 mm 5 m/s 745 mmHg 84%
09:00 +6°C° 0.1 mm 5 m/s 746 mmHg 77%
10:00 +6°C° 0.1 mm 5 m/s 747 mmHg 70%
11:00 +7°C° 0.1 mm 5 m/s 747 mmHg 62%
12:00 +7°C° 0.1 mm 6 m/s 748 mmHg 65%
13:00 +7°C° 0.1 mm 6 m/s 748 mmHg 67%
14:00 +7°C° 0.1 mm 6 m/s 748 mmHg 69%
15:00 +7°C° 0.1 mm 6 m/s 749 mmHg 67%
16:00 +6°C° 0.1 mm 5 m/s 749 mmHg 65%
17:00 +6°C° 0.1 mm 5 m/s 750 mmHg 63%
18:00 +5°C° 0 mm 4 m/s 750 mmHg 67%
19:00 +4°C° 0 mm 3 m/s 750 mmHg 71%
20:00 +4°C° 0 mm 2 m/s 751 mmHg 75%
21:00 +4°C° 0 mm 2 m/s 751 mmHg 79%
22:00 +3°C° 0 mm 2 m/s 751 mmHg 83%
23:00 +3°C° 0 mm 2 m/s 752 mmHg 87%

Mâine, 9 Mai, Duminică

Timp Temperatura Precipitaţii Vânt Presiune Umiditate
00:00 +2°C° 0 mm 2 m/s 752 mmHg 89%
01:00 +2°C° 0 mm 2 m/s 753 mmHg 91%
02:00 +2°C° 0 mm 2 m/s 753 mmHg 93%
03:00 +2°C° 0 mm 2 m/s 753 mmHg 94%
04:00 +1°C° 0 mm 2 m/s 754 mmHg 94%
05:00 +1°C° 0 mm 2 m/s 754 mmHg 95%
06:00 +3°C° 0 mm 2 m/s 755 mmHg 87%
07:00 +5°C° 0 mm 2 m/s 755 mmHg 78%
08:00 +7°C° 0 mm 2 m/s 756 mmHg 70%
09:00 +9°C° 0 mm 2 m/s 756 mmHg 64%
10:00 +10°C° 0 mm 2 m/s 756 mmHg 58%
11:00 +13°C° 0 mm 2 m/s 756 mmHg 51%
12:00 +13°C° 0 mm 2 m/s 756 mmHg 48%
13:00 +14°C° 0 mm 2 m/s 756 mmHg 45%
14:00 +15°C° 0 mm 2 m/s 756 mmHg 41%
15:00 +15°C° 0 mm 2 m/s 756 mmHg 42%
16:00 +15°C° 0 mm 2 m/s 756 mmHg 42%
17:00 +15°C° 0 mm 2 m/s 756 mmHg 42%
18:00 +13°C° 0 mm 2 m/s 756 mmHg 48%
19:00 +11°C° 0 mm 1 m/s 756 mmHg 55%
20:00 +9°C° 0 mm 1 m/s 756 mmHg 62%
21:00 +8°C° 0 mm 2 m/s 757 mmHg 64%
22:00 +7°C° 0 mm 2 m/s 757 mmHg 67%
23:00 +5°C° 0 mm 3 m/s 757 mmHg 69%

Poimâine, 10 Mai, Luni

Timp Temperatura Precipitaţii Vânt Presiune Umiditate
00:00 +6°C° 0 mm 2 m/s 757 mmHg 70%
01:00 +6°C° 0 mm 2 m/s 757 mmHg 71%
02:00 +6°C° 0 mm 2 m/s 757 mmHg 72%
03:00 +5°C° 0 mm 2 m/s 757 mmHg 73%
04:00 +5°C° 0 mm 2 m/s 757 mmHg 74%
05:00 +5°C° 0 mm 2 m/s 758 mmHg 75%
06:00 +7°C° 0 mm 3 m/s 758 mmHg 69%
07:00 +10°C° 0 mm 3 m/s 758 mmHg 63%
08:00 +12°C° 0 mm 3 m/s 758 mmHg 56%
09:00 +14°C° 0 mm 4 m/s 758 mmHg 52%
10:00 +15°C° 0 mm 4 m/s 758 mmHg 48%
11:00 +18°C° 0 mm 4 m/s 758 mmHg 44%
12:00 +18°C° 0 mm 4 m/s 758 mmHg 43%
13:00 +19°C° 0 mm 4 m/s 757 mmHg 41%
14:00 +20°C° 0 mm 4 m/s 757 mmHg 40%
15:00 +19°C° 0 mm 4 m/s 757 mmHg 43%
16:00 +19°C° 0 mm 4 m/s 757 mmHg 45%
17:00 +19°C° 0 mm 4 m/s 757 mmHg 48%
18:00 +17°C° 0 mm 4 m/s 757 mmHg 55%
19:00 +14°C° 0 mm 3 m/s 757 mmHg 62%
20:00 +11°C° 0 mm 3 m/s 757 mmHg 69%
21:00 +11°C° 0 mm 3 m/s 757 mmHg 71%
22:00 +10°C° 0 mm 3 m/s 757 mmHg 73%
23:00 +9°C° 0 mm 3 m/s 757 mmHg 75%

11 Mai, Marţi

Timp Temperatura Precipitaţii Vânt Presiune Umiditate
00:00 +8°C° 0 mm 3 m/s 757 mmHg 76%
01:00 +8°C° 0 mm 3 m/s 757 mmHg 77%
02:00 +7°C° 0 mm 3 m/s 757 mmHg 78%
03:00 +7°C° 0 mm 3 m/s 757 mmHg 79%
04:00 +7°C° 0 mm 3 m/s 757 mmHg 80%
05:00 +5°C° 0 mm 3 m/s 757 mmHg 81%
06:00 +8°C° 0 mm 3 m/s 757 mmHg 73%
07:00 +11°C° 0 mm 4 m/s 757 mmHg 64%
08:00 +13°C° 0 mm 4 m/s 757 mmHg 56%
09:00 +14°C° 0 mm 4 m/s 757 mmHg 50%
10:00 +17°C° 0 mm 4 m/s 757 mmHg 45%
11:00 +18°C° 0 mm 4 m/s 756 mmHg 39%
12:00 +19°C° 0 mm 4 m/s 756 mmHg 37%
13:00 +20°C° 0 mm 4 m/s 755 mmHg 36%
14:00 +20°C° 0 mm 4 m/s 755 mmHg 34%
15:00 +20°C° 0 mm 4 m/s 755 mmHg 37%
16:00 +20°C° 0 mm 4 m/s 754 mmHg 40%
17:00 +20°C° 0 mm 4 m/s 754 mmHg 43%
18:00 +17°C° 0 mm 4 m/s 754 mmHg 51%
19:00 +14°C° 0 mm 3 m/s 754 mmHg 59%
20:00 +12°C° 0 mm 3 m/s 754 mmHg 67%
21:00 +12°C° 0 mm 3 m/s 753 mmHg 73%
22:00 +11°C° 0 mm 3 m/s 753 mmHg 78%
23:00 +11°C° 0 mm 3 m/s 753 mmHg 84%

12 Mai, Miercuri

Timp Temperatura Precipitaţii Vânt Presiune Umiditate
00:00 +10°C° 0 mm 3 m/s 753 mmHg 88%
01:00 +10°C° 0 mm 3 m/s 753 mmHg 92%
02:00 +10°C° 0 mm 3 m/s 753 mmHg 96%
03:00 +10°C° 0 mm 3 m/s 753 mmHg 96%
04:00 +9°C° 0 mm 2 m/s 753 mmHg 97%
05:00 +8°C° 0 mm 2 m/s 752 mmHg 97%
06:00 +10°C° 0 mm 3 m/s 752 mmHg 90%
07:00 +11°C° 0 mm 3 m/s 752 mmHg 82%
08:00 +12°C° 0 mm 3 m/s 752 mmHg 74%
09:00 +12°C° 0 mm 3 m/s 751 mmHg 78%
10:00 +11°C° 0 mm 3 m/s 751 mmHg 81%
11:00 +12°C° 0 mm 2 m/s 751 mmHg 85%
12:00 +11°C° 0 mm 3 m/s 751 mmHg 83%
13:00 +11°C° 0 mm 3 m/s 750 mmHg 80%
14:00 +12°C° 0 mm 3 m/s 750 mmHg 77%
15:00 +12°C° 0.1 mm 3 m/s 750 mmHg 75%
16:00 +13°C° 0.1 mm 4 m/s 750 mmHg 74%
17:00 +14°C° 0.1 mm 5 m/s 749 mmHg 72%
18:00 +12°C° 0 mm 5 m/s 749 mmHg 74%
19:00 +11°C° 0 mm 4 m/s 749 mmHg 77%
20:00 +10°C° 0 mm 4 m/s 749 mmHg 79%
21:00 +10°C° 0 mm 4 m/s 749 mmHg 82%
22:00 +8°C° 0 mm 4 m/s 749 mmHg 86%
23:00 +7°C° 0 mm 4 m/s 749 mmHg 89%

13 Mai, Joi

Timp Temperatura Precipitaţii Vânt Presiune Umiditate
00:00 +7°C° 0 mm 4 m/s 748 mmHg 89%
01:00 +8°C° 0 mm 3 m/s 748 mmHg 88%
02:00 +9°C° 0 mm 3 m/s 748 mmHg 88%
03:00 +9°C° 0 mm 3 m/s 747 mmHg 89%
04:00 +9°C° 0 mm 3 m/s 747 mmHg 90%
05:00 +8°C° 0 mm 3 m/s 747 mmHg 92%
06:00 +9°C° 0 mm 3 m/s 746 mmHg 88%
07:00 +10°C° 0 mm 3 m/s 746 mmHg 85%
08:00 +10°C° 0 mm 4 m/s 746 mmHg 81%
09:00 +11°C° 0.1 mm 4 m/s 746 mmHg 74%
10:00 +13°C° 0.1 mm 4 m/s 745 mmHg 66%
11:00 +14°C° 0.1 mm 4 m/s 745 mmHg 58%
12:00 +13°C° 0.1 mm 4 m/s 745 mmHg 64%
13:00 +12°C° 0.1 mm 5 m/s 745 mmHg 71%
14:00 +10°C° 0.1 mm 5 m/s 745 mmHg 78%
15:00 +9°C° 0.5 mm 5 m/s 745 mmHg 83%
16:00 +9°C° 0.5 mm 5 m/s 745 mmHg 88%
17:00 +8°C° 0.5 mm 4 m/s 745 mmHg 93%
18:00 +8°C° 0.4 mm 4 m/s 745 mmHg 93%
19:00 +8°C° 0.4 mm 4 m/s 745 mmHg 94%
20:00 +10°C° 0.4 mm 4 m/s 745 mmHg 94%
21:00 +10°C° 0.1 mm 4 m/s 744 mmHg 95%
22:00 +10°C° 0.1 mm 3 m/s 744 mmHg 95%
23:00 +10°C° 0.1 mm 3 m/s 744 mmHg 95%
Arată mai mult

Formular de consimțământ

Meteoprog și furnizorii noștri de servicii pot stoca și accesa date personale, precum cookies, identificatori de dispozitiv sau alte tehnologii similare pe dispozitivul dumneavoastră și procesa astfel de date pentru a personaliza conținutul și reclamele, dar și pentru a oferi caracteristici de social media și pentru a analiza traficul.

  • Stocarea și/sau accesarea informațiilor pe dispozitivul dumneavoastră

    Cookies, identificatori de dispozitiv sau alte informații pot fi stocate sau accesate pe dispozitiv în scopurile indicate mai sus.

  • Reclame și conținut personalizat, evaluarea reclamelor și a conținutului, informații despre audiențe și dezvoltarea produselor

    Reclamele și conținutul pot fi personalizate pe baza unui profil. Pot fi adăugate date suplimentare pentru a personaliza mai bine reclamele și conținutul. Performanța reclamelor și conținutului poate fi măsurată. Pot fi obținute informații despre utilizatorii care au văzut reclamele și conținutul. Aceste date pot fi utilizate pentru a dezvolta sau îmbunătăți experiența utilizatorilor, sistemele și software-ul.

Dând clic pe ‘Sunt de acord’, permiteți utilizarea cookie-urilor menționate, a identificatorilor de dispozitiv, balizelor web sau altor tehnologii similare. Setările pot fi modificate din browser-ul dispozitivului dumneavoastră.

În anumite scopuri, interesele legitime pot prima asupra consimțământului. Puteți citi mai multe informații în acest sens în Politica privind Confidențialitatea Datelor și Cookie.